Vertical_Velocity
2 1 -0 -0 0 -1 -1 -1 -1 -0 -0 -1 -0 -0 -1 -1 1 0 1 -0 -2 -2 0 -0 -1 -1 -3 -2 -1 -0 -1 3 4 -40 6 -4 -2 6 5 2 -4 -8 -7
2 -0 0 0 -1 -1 0 -1 -0 0 -1 0 -0 -0 -1 0 -0 0 -2 -2 -1 -1 -0 -1 -1 -2 -2 -0 -0 -2 -3 0 11 -0 -9 -5 -2 -1 1 7 4 3 -1
1 1 1 -1 1 -0 -1 1 -0 -1 1 1 -1 -1 -3 -3 -2 -1 -1 -0 -0 -1 -0 -1 -2 -0 -2 -4 -4 -6 1 2 3 5 -24 -4 -7 2 -8 4 2 -3 -2
2 1 0 1 -1 -0 -1 -2 -1 0 -0 -0 -0 -2 -0 -2 -2 -0 0 -2 -2 -1 -0 -0 0 -0 -4 -4 3 3 4 -0 -2 -1 -2 -3 2 1 9 1 -14 -3 -11
1 0 1 -0 -0 -1 -1 0 1 0 -0 -1 -2 0 1 -1 -2 -1 -2 -3 -2 -2 1 1 -0 -1 0 3 11 3 -0 -3 4 5 -8 -0 17 -10 -2 -9 -4 -4 -12
0 -0 0 -0 -1 -0 1 1 0 -0 -1 -1 1 -2 -3 -1 -1 -3 -1 0 0 0 -2 -1 -3 -3 -3 -0 -7 -2 12 12 -7 11 28 -2 -6 -2 -7 -3 3 14 -17
0 0 -0 -1 -0 1 0 -2 -1 -0 -2 -1 -1 -1 -2 -1 -3 -1 0 -2 -2 -0 -1 -4 -3 -0 -3 -5 -6 -2 -10 6 22 4 -1 0 -3 -5 14 9 -0 3 -7
1 0 -0 1 0 -1 -1 0 -1 -1 -2 -3 -3 -2 -2 -1 -1 -2 -4 -4 -2 -2 -2 1 1 -4 -1 2 5 -0 18 -2 -5 -0 9 2 10 8 10 10 4 1 -7
1 1 -0 -1 -1 -0 1 -1 -3 -2 -1 -2 1 -0 0 -1 -2 -4 -4 -4 -5 -3 1 1 -2 -2 -8 8 17 -5 -4 -8 -0 -1 -4 -4 -3 -0 4 6 -1 5 -16
-1 -1 -1 -1 0 -0 -3 -2 -1 -2 -1 0 -0 3 -2 -2 -1 -4 -5 -5 1 1 8 -1 -2 -2 3 2 10 5 -6 -11 0 1 -8 -8 0 -6 -0 7 4 3 4
-1 -1 -0 -0 -1 -2 -0 -1 -3 -2 -0 4 2 0 -2 -0 -2 -3 -3 4 -3 4 -3 -4 -1 -5 4 -3 0 0 -1 19 -6 -4 -5 -5 -5 -4 -1 1 6 14 5
-0 0 -0 -1 -1 -1 -3 -2 1 0 0 -2 -4 -4 -3 -3 -2 -3 1 -2 8 -2 1 -2 -2 1 -5 -2 -1 -1 -0 1 -3 -4 -3 -5 -3 -3 -2 2 3 2 7
0 -0 -1 0 -1 -3 -2 -0 1 0 -2 -3 -2 -3 -4 -4 -3 -2 -3 2 -8 5 -3 4 -7 -4 -1 -1 -2 -1 -0 -4 -2 -2 -2 -2 4 0 -2 -4 1 3 1
-1 -0 -0 -1 -1 -0 2 1 -0 -3 -3 -2 -2 -2 -1 -2 -4 -5 4 -3 1 -3 -1 -4 2 2 3 3 -3 -4 -2 1 5 2 -1 -1 -1 -5 -3 4 -0 -4 -3
0 -1 -1 -1 -0 1 3 -3 -5 0 0 -2 -0 0 -2 -1 -0 7 -1 6 4 4 -2 -4 -5 -5 -6 -6 -5 -1 -1 -2 -1 -1 -2 -3 -3 -1 -3 1 1 -0 4
-1 -1 0 1 0 1 -4 -5 7 2 1 2 2 2 -1 -1 -2 -2 0 1 -2 -6 -5 -4 -5 -2 -2 -3 -3 -5 1 -1 -0 -1 -1 2 -2 1 -2 -2 3 3 2
-0 1 0 1 1 -2 -1 -1 -7 -5 -2 -0 -2 -2 -2 -1 -0 -2 0 -4 -4 -0 -2 -2 -1 -0 -1 -1 1 2 -4 1 2 2 1 -1 4 1 1 -3 -2 5 -4
-0 -0 0 -1 -2 -1 -1 -0 0 -1 -3 -6 -2 -4 -3 -1 -2 1 -4 -4 -9 -3 0 -1 -2 -0 -2 -1 0 -1 -2 -2 0 -2 -1 4 1 4 -3 -1 -0 2 0
0 0 -1 -1 0 -1 -1 -1 -0 0 -2 -3 -2 1 -1 -4 -1 2 1 0 -2 -2 -1 -1 1 -0 -1 1 1 1 2 -1 1 2 -1 1 1 2 -1 1 3 6 3
1 -1 -2 -1 -1 0 1 -0 -0 -3 -3 -4 -4 -1 -4 -3 -6 -4 -2 -1 0 1 1 -0 -1 -0 1 2 -0 -0 -3 -2 -2 -0 0 1 2 3 2 -2 5 2 -0
-3 -1 0 1 1 -0 -1 -1 -2 -2 -1 -2 -2 1 3 2 -2 -3 -3 -1 1 -1 -1 -1 -1 0 2 1 0 -1 0 -1 3 2 2 1 2 -2 1 2 2 3 2
-2 -1 0 -0 -1 1 -1 -2 -1 -1 -2 -2 -3 -2 1 1 -1 -2 0 1 0 1 2 0 -1 1 2 1 1 -1 -0 -1 1 2 1 2 2 0 -0 4 0 2 2
-0 1 1 2 1 0 -1 -1 -1 -2 -2 -0 -1 -3 -2 -1 -1 -0 -0 0 -1 -1 1 1 0 -1 3 3 5 5 0 2 4 5 -1 -1 -1 2 5 2 -0 1 -1
1 -0 -1 -1 -1 -2 -1 -1 -1 1 1 -0 -1 -2 -1 -1 -1 -0 -0 -2 -1 -0 2 1 2 3 0 0 1 2 6 8 -2 -2 7 8 4 1 1 1 0 1 1
-1 -1 -0 -1 -1 -2 -1 -2 -1 -0 -1 -0 -1 -1 0 0 -0 -0 -0 0 -1 0 1 2 1 0 2 2 3 5 4 0 5 5 2 1 0 -0 2 2 1 0 2
-0 -0 -1 -0 0 -1 -1 -1 -1 -2 -2 0 -1 0 -0 -1 -0 -1 -1 -1 -1 0 1 -0 1 4 4 -0 1 2 0 4 2 1 1 1 -0 0 1 1 -0 -0 -0
Height
1466 1469 1472 1475 1477 1478 1478 1478 1477 1475 1473 1471 1469 1467 1463 1460 1456 1452 1448 1444 1440 1435 1431 1426 1422 1417 1412 1407 1402 1398 1393 1390 1381 1364 1362 1357 1352 1348 1345 1342 1338 1333 1328
1465 1468 1471 1473 1475 1476 1476 1475 1474 1472 1470 1468 1466 1463 1460 1456 1452 1447 1442 1439 1434 1429 1425 1421 1416 1411 1406 1401 1396 1391 1386 1382 1376 1365 1355 1348 1345 1339 1333 1329 1325 1322 1318
1464 1467 1470 1472 1474 1475 1474 1473 1471 1469 1467 1465 1462 1459 1455 1451 1447 1442 1438 1433 1429 1425 1420 1415 1411 1406 1400 1395 1390 1385 1379 1374 1369 1361 1349 1343 1335 1330 1323 1319 1315 1310 1305
1463 1466 1469 1471 1472 1472 1472 1470 1468 1467 1465 1462 1459 1455 1451 1446 1442 1437 1432 1427 1423 1419 1415 1411 1406 1401 1394 1389 1385 1380 1374 1367 1360 1352 1342 1334 1329 1323 1318 1310 1301 1298 1290
1463 1466 1468 1469 1470 1470 1469 1467 1466 1464 1461 1458 1455 1451 1447 1442 1437 1431 1426 1422 1417 1412 1409 1405 1400 1395 1391 1386 1380 1373 1367 1359 1351 1344 1334 1326 1319 1315 1310 1302 1292 1284 1278
1462 1465 1466 1468 1468 1467 1466 1465 1463 1461 1458 1454 1451 1446 1442 1437 1432 1427 1423 1417 1412 1407 1402 1397 1393 1388 1383 1378 1373 1367 1361 1353 1344 1336 1326 1321 1314 1309 1301 1293 1284 1277 1270
1461 1463 1465 1466 1465 1464 1463 1462 1460 1457 1454 1451 1447 1442 1438 1432 1427 1422 1418 1412 1407 1402 1397 1392 1386 1382 1376 1368 1361 1357 1350 1343 1338 1332 1322 1316 1307 1301 1293 1285 1279 1272 1262
1459 1461 1463 1463 1463 1462 1461 1459 1456 1454 1450 1446 1442 1438 1433 1428 1422 1417 1412 1406 1401 1397 1392 1387 1381 1375 1369 1363 1354 1346 1339 1334 1328 1323 1317 1309 1302 1294 1288 1279 1270 1262 1253
1458 1460 1461 1461 1460 1460 1458 1456 1453 1450 1446 1442 1438 1433 1427 1423 1418 1412 1407 1401 1395 1391 1386 1381 1377 1370 1363 1357 1348 1339 1331 1324 1320 1314 1309 1302 1294 1286 1280 1271 1262 1255 1244
1456 1458 1459 1458 1458 1456 1454 1452 1449 1446 1442 1438 1433 1428 1423 1418 1413 1408 1404 1398 1391 1384 1379 1374 1370 1366 1358 1351 1344 1334 1325 1318 1311 1304 1297 1290 1284 1276 1271 1265 1257 1249 1240
1454 1456 1456 1456 1455 1453 1451 1448 1445 1442 1438 1433 1428 1424 1419 1414 1408 1404 1401 1396 1389 1381 1375 1368 1363 1357 1352 1345 1338 1330 1322 1315 1306 1298 1289 1282 1275 1269 1262 1256 1250 1243 1234
1453 1453 1453 1453 1452 1450 1448 1445 1441 1437 1432 1428 1423 1418 1414 1409 1405 1400 1396 1393 1387 1380 1371 1365 1357 1352 1346 1338 1331 1325 1319 1311 1301 1293 1285 1278 1270 1262 1255 1248 1241 1235 1228
1451 1451 1451 1451 1449 1447 1444 1441 1437 1432 1427 1422 1417 1412 1407 1403 1399 1395 1391 1387 1382 1375 1367 1360 1353 1346 1338 1331 1324 1319 1313 1304 1297 1290 1283 1274 1267 1258 1249 1241 1234 1227 1219
1449 1449 1449 1448 1446 1443 1440 1436 1432 1427 1423 1418 1413 1408 1403 1399 1394 1390 1386 1380 1374 1368 1361 1353 1347 1340 1333 1327 1319 1313 1307 1301 1295 1287 1279 1271 1262 1254 1246 1239 1230 1221 1213
1447 1447 1446 1445 1442 1440 1436 1432 1428 1425 1420 1415 1410 1406 1400 1394 1391 1388 1383 1376 1370 1363 1356 1347 1340 1334 1327 1321 1315 1309 1303 1296 1290 1283 1276 1267 1259 1252 1244 1236 1228 1220 1213
1445 1445 1444 1442 1439 1435 1432 1429 1426 1421 1417 1413 1408 1403 1398 1394 1388 1383 1378 1372 1366 1358 1351 1343 1336 1331 1325 1318 1311 1304 1299 1293 1286 1280 1273 1266 1258 1250 1241 1233 1227 1220 1212
1443 1443 1441 1438 1435 1432 1428 1424 1419 1416 1413 1409 1403 1399 1394 1390 1384 1379 1374 1367 1359 1353 1347 1341 1334 1328 1322 1316 1309 1302 1295 1289 1283 1277 1270 1263 1256 1248 1241 1232 1225 1219 1211
1441 1440 1438 1435 1432 1428 1424 1420 1416 1410 1405 1401 1399 1395 1390 1385 1380 1376 1369 1360 1353 1349 1344 1338 1331 1325 1319 1313 1306 1299 1292 1286 1280 1273 1267 1261 1254 1247 1239 1232 1226 1220 1213
1439 1437 1435 1432 1428 1425 1421 1417 1412 1407 1402 1397 1393 1389 1384 1379 1375 1370 1363 1357 1350 1345 1340 1334 1329 1323 1316 1310 1303 1297 1290 1283 1277 1271 1265 1258 1252 1246 1240 1234 1227 1222 1216
1436 1434 1431 1428 1425 1421 1418 1413 1408 1404 1399 1395 1389 1384 1378 1374 1368 1363 1358 1353 1348 1342 1336 1331 1325 1320 1314 1307 1300 1294 1287 1280 1274 1268 1262 1257 1251 1246 1240 1234 1229 1223 1218
1434 1431 1428 1425 1422 1418 1413 1409 1405 1401 1396 1391 1387 1382 1378 1372 1366 1360 1355 1350 1345 1339 1333 1328 1322 1317 1311 1304 1298 1291 1284 1277 1272 1266 1260 1255 1250 1245 1240 1235 1230 1225 1220
1430 1428 1424 1421 1417 1413 1409 1406 1402 1397 1393 1388 1382 1378 1373 1368 1362 1357 1352 1347 1342 1336 1331 1325 1320 1314 1307 1301 1294 1288 1281 1275 1269 1264 1258 1253 1248 1243 1239 1235 1231 1226 1222
1427 1424 1421 1417 1413 1409 1406 1402 1398 1393 1389 1384 1379 1373 1368 1363 1358 1353 1348 1343 1338 1333 1328 1323 1317 1310 1304 1298 1292 1285 1279 1273 1267 1261 1255 1250 1246 1242 1239 1235 1231 1228 1224
1423 1420 1417 1413 1409 1405 1401 1397 1393 1390 1385 1380 1375 1370 1365 1360 1355 1350 1345 1340 1335 1330 1325 1319 1314 1308 1301 1295 1289 1284 1278 1271 1264 1258 1254 1250 1246 1242 1239 1235 1232 1229 1227
1419 1416 1413 1409 1405 1401 1397 1393 1389 1385 1381 1375 1370 1366 1361 1356 1351 1346 1342 1337 1332 1327 1322 1317 1312 1305 1298 1293 1288 1282 1276 1269 1264 1259 1255 1250 1246 1243 1239 1236 1234 1231 1229
1416 1413 1409 1405 1402 1398 1394 1389 1385 1381 1376 1371 1367 1362 1357 1352 1348 1343 1339 1334 1329 1324 1320 1315 1309 1303 1297 1292 1287 1281 1274 1269 1264 1260 1256 1252 1248 1244 1242 1239 1237 1234 1232